contact: severine.martini@mio.osupytheas.fr, dominique.lefevre@mio.osupytheas.fr
Project:EMSO Ligure-ouest http://www.emso-fr.org/EMSO-France
Sensor Microcat Sea-Bird SBE37 SMP,  Serial 57510 
DOI : "https://doi.org/10.17882/97948" 
Title:EMSO Ligure Ouest : Data Bathybot capteur Microcat - deploiement 2023-04-28
Datetime,Profondeur,Latitude,Longitude,Temperature,Conductivite,Pression,Salinite
time,m,degree_north,degree_east,degree_C,S/m,db,PSU 
2023-10-04T11:33:49,2420,42.8014,5.9826,13.2977,4.59928,2453.477,38.4891
2023-10-04T11:36:49,2420,42.8014,5.9826,13.2978,4.59918,2453.491,38.4880
2023-10-04T11:39:49,2420,42.8014,5.9826,13.2978,4.59917,2453.491,38.4879
2023-10-04T11:42:49,2420,42.8014,5.9826,13.2977,4.59917,2453.446,38.4881
2023-10-04T11:45:49,2420,42.8014,5.9826,13.2978,4.59926,2453.491,38.4887
2023-10-04T11:48:49,2420,42.8014,5.9826,13.2977,4.59921,2453.469,38.4884
2023-10-04T11:51:49,2420,42.8014,5.9826,13.2975,4.59919,2453.477,38.4883
2023-10-04T11:54:49,2420,42.8014,5.9826,13.2974,4.59931,2453.491,38.4896
2023-10-04T11:57:49,2420,42.8014,5.9826,13.2978,4.59927,2453.469,38.4888
2023-10-04T12:00:50,2420,42.8014,5.9826,13.2979,4.59924,2453.491,38.4884
2023-10-04T12:03:49,2420,42.8014,5.9826,13.2978,4.59916,2453.446,38.4878
2023-10-04T12:06:49,2420,42.8014,5.9826,13.2978,4.59920,2453.514,38.4882
2023-10-04T12:09:49,2420,42.8014,5.9826,13.2978,4.59926,2453.491,38.4887
2023-10-04T12:12:49,2420,42.8014,5.9826,13.2976,4.59918,2453.491,38.4882
2023-10-04T12:15:49,2420,42.8014,5.9826,13.2977,4.59920,2453.491,38.4883
2023-10-04T12:18:49,2420,42.8014,5.9826,13.2975,4.59928,2453.514,38.4892
2023-10-04T12:21:49,2420,42.8014,5.9826,13.2987,4.59914,2453.491,38.4867
2023-10-04T12:24:49,2420,42.8014,5.9826,13.2976,4.59916,2453.469,38.4880
2023-10-04T12:27:49,2420,42.8014,5.9826,13.2978,4.59918,2453.528,38.4880
2023-10-04T12:30:49,2420,42.8014,5.9826,13.2978,4.59921,2453.514,38.4883
2023-10-04T12:33:49,2420,42.8014,5.9826,13.2976,4.59917,2453.469,38.4881
2023-10-04T12:36:49,2420,42.8014,5.9826,13.2978,4.59918,2453.491,38.4880
2023-10-04T12:39:49,2420,42.8014,5.9826,13.2975,4.59920,2453.514,38.4885
2023-10-04T12:42:49,2420,42.8014,5.9826,13.2977,4.59925,2453.491,38.4887
2023-10-04T12:45:49,2420,42.8014,5.9826,13.2978,4.59914,2453.491,38.4877
2023-10-04T12:48:49,2420,42.8014,5.9826,13.2978,4.59928,2453.499,38.4889
2023-10-04T12:51:49,2420,42.8014,5.9826,13.2979,4.59914,2453.491,38.4875
2023-10-04T12:54:49,2420,42.8014,5.9826,13.2977,4.59920,2453.514,38.4882
2023-10-04T12:57:49,2420,42.8014,5.9826,13.2975,4.59914,2453.514,38.4879
2023-10-04T13:00:49,2420,42.8014,5.9826,13.2975,4.59918,2453.499,38.4883
2023-10-04T13:03:49,2420,42.8014,5.9826,13.2979,4.59915,2453.514,38.4876
2023-10-04T13:06:49,2420,42.8014,5.9826,13.2975,4.59920,2453.514,38.4885
2023-10-04T13:09:49,2420,42.8014,5.9826,13.2972,4.59913,2453.514,38.4881
2023-10-04T13:12:49,2420,42.8014,5.9826,13.2975,4.59922,2453.514,38.4887
2023-10-04T13:15:49,2420,42.8014,5.9826,13.2970,4.59916,2453.514,38.4886
2023-10-04T13:18:49,2420,42.8014,5.9826,13.2975,4.59920,2453.491,38.4885
2023-10-04T13:21:49,2420,42.8014,5.9826,13.2983,4.59918,2453.514,38.4875
2023-10-04T13:24:49,2420,42.8014,5.9826,13.2973,4.59928,2453.514,38.4893
2023-10-04T13:27:50,2420,42.8014,5.9826,13.2978,4.59913,2453.477,38.4875
2023-10-04T13:30:49,2420,42.8014,5.9826,13.2975,4.59915,2453.514,38.4880
2023-10-04T13:33:49,2420,42.8014,5.9826,13.2976,4.59917,2453.514,38.4880
2023-10-04T13:36:49,2420,42.8014,5.9826,13.2973,4.59917,2453.499,38.4884
2023-10-04T13:39:49,2420,42.8014,5.9826,13.2975,4.59928,2453.514,38.4892
2023-10-04T13:42:49,2420,42.8014,5.9826,13.2975,4.59922,2453.537,38.4887
2023-10-04T13:45:49,2420,42.8014,5.9826,13.2976,4.59914,2453.514,38.4878
2023-10-04T13:48:49,2420,42.8014,5.9826,13.2974,4.59920,2453.537,38.4886
2023-10-04T13:51:49,2420,42.8014,5.9826,13.2975,4.59923,2453.491,38.4888
2023-10-04T13:54:49,2420,42.8014,5.9826,13.2977,4.59913,2453.491,38.4876
2023-10-04T13:57:49,2420,42.8014,5.9826,13.2975,4.59917,2453.528,38.4882
2023-10-04T14:00:49,2420,42.8014,5.9826,13.2977,4.59917,2453.537,38.4880
2023-10-04T14:03:49,2420,42.8014,5.9826,13.2977,4.59917,2453.537,38.4880
2023-10-04T14:06:49,2420,42.8014,5.9826,13.2978,4.59913,2453.477,38.4875
2023-10-04T14:09:49,2420,42.8014,5.9826,13.2973,4.59919,2453.528,38.4885
2023-10-04T14:12:49,2420,42.8014,5.9826,13.2974,4.59918,2453.514,38.4884
2023-10-04T14:15:49,2420,42.8014,5.9826,13.2975,4.59911,2453.491,38.4876
2023-10-04T14:18:49,2420,42.8014,5.9826,13.2973,4.59915,2453.514,38.4882
2023-10-04T14:21:49,2420,42.8014,5.9826,13.2971,4.59920,2453.514,38.4888
2023-10-04T14:24:49,2420,42.8014,5.9826,13.2979,4.59912,2453.491,38.4873
2023-10-04T14:27:49,2420,42.8014,5.9826,13.2978,4.59911,2453.514,38.4873
2023-10-04T14:30:49,2420,42.8014,5.9826,13.2976,4.59913,2453.551,38.4877
2023-10-04T14:33:49,2420,42.8014,5.9826,13.2975,4.59920,2453.514,38.4884
2023-10-04T14:36:49,2420,42.8014,5.9826,13.2979,4.59912,2453.514,38.4873
2023-10-04T14:39:49,2420,42.8014,5.9826,13.2976,4.59913,2453.537,38.4877
2023-10-04T14:42:49,2420,42.8014,5.9826,13.2977,4.59916,2453.491,38.4879
2023-10-04T14:45:49,2420,42.8014,5.9826,13.2975,4.59911,2453.514,38.4877
2023-10-04T14:48:49,2420,42.8014,5.9826,13.2974,4.59914,2453.514,38.4880
2023-10-04T14:51:49,2420,42.8014,5.9826,13.2974,4.59914,2453.491,38.4880
2023-10-04T14:54:49,2420,42.8014,5.9826,13.2971,4.59926,2453.537,38.4894
2023-10-04T14:57:49,2420,42.8014,5.9826,13.2971,4.59925,2453.499,38.4893
2023-10-04T15:00:49,2420,42.8014,5.9826,13.2973,4.59922,2453.499,38.4888
2023-10-04T15:03:49,2420,42.8014,5.9826,13.2976,4.59913,2453.514,38.4877
2023-10-04T15:06:49,2420,42.8014,5.9826,13.2976,4.59919,2453.537,38.4882
2023-10-04T15:09:49,2420,42.8014,5.9826,13.2977,4.59913,2453.514,38.4876
2023-10-04T15:12:49,2420,42.8014,5.9826,13.2973,4.59915,2453.491,38.4882
2023-10-04T15:15:49,2420,42.8014,5.9826,13.2979,4.59911,2453.537,38.4872
2023-10-04T15:18:49,2420,42.8014,5.9826,13.2975,4.59920,2453.506,38.4885
2023-10-04T15:21:49,2420,42.8014,5.9826,13.2976,4.59918,2453.537,38.4882
2023-10-04T15:24:49,2420,42.8014,5.9826,13.2978,4.59912,2453.477,38.4874
2023-10-04T15:27:49,2420,42.8014,5.9826,13.2972,4.59919,2453.514,38.4887
2023-10-04T15:30:49,2420,42.8014,5.9826,13.2975,4.59914,2453.499,38.4879
2023-10-04T15:33:49,2420,42.8014,5.9826,13.2975,4.59920,2453.499,38.4884
2023-10-04T15:36:49,2420,42.8014,5.9826,13.2975,4.59914,2453.499,38.4878
2023-10-04T15:39:49,2420,42.8014,5.9826,13.2973,4.59922,2453.537,38.4888
2023-10-04T15:42:49,2420,42.8014,5.9826,13.2977,4.59917,2453.514,38.4880
2023-10-04T15:45:49,2420,42.8014,5.9826,13.2976,4.59916,2453.514,38.4880
2023-10-04T15:48:49,2420,42.8014,5.9826,13.2974,4.59912,2453.491,38.4878
2023-10-04T15:51:49,2420,42.8014,5.9826,13.2970,4.59917,2453.522,38.4886
2023-10-04T15:54:49,2420,42.8014,5.9826,13.2973,4.59917,2453.514,38.4883
2023-10-04T15:57:49,2420,42.8014,5.9826,13.2974,4.59917,2453.514,38.4882
2023-10-04T16:00:49,2420,42.8014,5.9826,13.2977,4.59913,2453.537,38.4876
2023-10-04T16:03:49,2420,42.8014,5.9826,13.2975,4.59922,2453.514,38.4886
2023-10-04T16:06:49,2420,42.8014,5.9826,13.2975,4.59915,2453.514,38.4880
2023-10-04T16:09:49,2420,42.8014,5.9826,13.2975,4.59922,2453.491,38.4887
2023-10-04T16:12:49,2420,42.8014,5.9826,13.2974,4.59917,2453.491,38.4882
2023-10-04T16:15:49,2420,42.8014,5.9826,13.2976,4.59917,2453.514,38.4880
2023-10-04T16:18:49,2420,42.8014,5.9826,13.2978,4.59914,2453.514,38.4876
2023-10-04T16:21:49,2420,42.8014,5.9826,13.2978,4.59920,2453.514,38.4882
2023-10-04T16:24:49,2420,42.8014,5.9826,13.2973,4.59921,2453.491,38.4887
2023-10-04T16:27:49,2420,42.8014,5.9826,13.2979,4.59918,2453.491,38.4879
2023-10-04T16:30:49,2420,42.8014,5.9826,13.2978,4.59913,2453.514,38.4875
2023-10-04T16:33:50,2420,42.8014,5.9826,13.2978,4.59917,2453.514,38.4879
2023-10-04T16:36:49,2420,42.8014,5.9826,13.2974,4.59920,2453.477,38.4886
2023-10-04T16:39:49,2420,42.8014,5.9826,13.2975,4.59914,2453.514,38.4879
2023-10-04T16:42:49,2420,42.8014,5.9826,13.2976,4.59926,2453.491,38.4889
2023-10-04T16:45:49,2420,42.8014,5.9826,13.2971,4.59915,2453.491,38.4884
2023-10-04T16:48:49,2420,42.8014,5.9826,13.2976,4.59917,2453.514,38.4881
2023-10-04T16:51:49,2420,42.8014,5.9826,13.2976,4.59921,2453.477,38.4885
2023-10-04T16:54:49,2420,42.8014,5.9826,13.2976,4.59915,2453.491,38.4879
2023-10-04T16:57:49,2420,42.8014,5.9826,13.2975,4.59916,2453.491,38.4881
2023-10-04T17:00:49,2420,42.8014,5.9826,13.2978,4.59922,2453.477,38.4884
2023-10-04T17:03:49,2420,42.8014,5.9826,13.2974,4.59917,2453.491,38.4883
2023-10-04T17:06:49,2420,42.8014,5.9826,13.2977,4.59921,2453.469,38.4884
2023-10-04T17:09:49,2420,42.8014,5.9826,13.2975,4.59922,2453.469,38.4887
2023-10-04T17:12:49,2420,42.8014,5.9826,13.2981,4.59919,2453.491,38.4878
2023-10-04T17:15:49,2420,42.8014,5.9826,13.2975,4.59919,2453.454,38.4884
2023-10-04T17:18:49,2420,42.8014,5.9826,13.2978,4.59917,2453.491,38.4880
2023-10-04T17:21:49,2420,42.8014,5.9826,13.2972,4.59920,2453.491,38.4888
2023-10-04T17:24:49,2420,42.8014,5.9826,13.2975,4.59918,2453.491,38.4883
2023-10-04T17:27:49,2420,42.8014,5.9826,13.2977,4.59920,2453.491,38.4883
2023-10-04T17:30:49,2420,42.8014,5.9826,13.2976,4.59922,2453.469,38.4885
2023-10-04T17:33:49,2420,42.8014,5.9826,13.2975,4.59914,2453.514,38.4880
2023-10-04T17:36:49,2420,42.8014,5.9826,13.2975,4.59927,2453.491,38.4891
2023-10-04T17:39:49,2420,42.8014,5.9826,13.2975,4.59922,2453.491,38.4887
2023-10-04T17:42:49,2420,42.8014,5.9826,13.2977,4.59926,2453.514,38.4889
2023-10-04T17:45:49,2420,42.8014,5.9826,13.2982,4.59922,2453.491,38.4880
2023-10-04T17:48:49,2420,42.8014,5.9826,13.2977,4.59928,2453.514,38.4890
2023-10-04T17:51:49,2420,42.8014,5.9826,13.2981,4.59927,2453.514,38.4885
2023-10-04T17:54:49,2420,42.8014,5.9826,13.2984,4.59923,2453.491,38.4879
2023-10-04T17:57:49,2420,42.8014,5.9826,13.2981,4.59926,2453.491,38.4884
2023-10-04T18:00:49,2420,42.8014,5.9826,13.2978,4.59929,2453.491,38.4890
2023-10-04T18:03:49,2420,42.8014,5.9826,13.2977,4.59922,2453.491,38.4885
2023-10-04T18:06:49,2420,42.8014,5.9826,13.2978,4.59922,2453.491,38.4883
2023-10-04T18:09:49,2420,42.8014,5.9826,13.2980,4.59926,2453.514,38.4885
2023-10-04T18:12:49,2420,42.8014,5.9826,13.2975,4.59924,2453.514,38.4889
2023-10-04T18:15:49,2420,42.8014,5.9826,13.2980,4.59915,2453.491,38.4875
2023-10-04T18:18:49,2420,42.8014,5.9826,13.2976,4.59919,2453.499,38.4883
2023-10-04T18:21:49,2420,42.8014,5.9826,13.2979,4.59926,2453.514,38.4885
2023-10-04T18:24:49,2420,42.8014,5.9826,13.2982,4.59924,2453.514,38.4882
2023-10-04T18:27:49,2420,42.8014,5.9826,13.2975,4.59922,2453.514,38.4887
2023-10-04T18:30:49,2420,42.8014,5.9826,13.2979,4.59922,2453.491,38.4883
2023-10-04T18:33:49,2420,42.8014,5.9826,13.2979,4.59927,2453.522,38.4887
2023-10-04T18:36:49,2420,42.8014,5.9826,13.2979,4.59928,2453.514,38.4888
2023-10-04T18:39:49,2420,42.8014,5.9826,13.2983,4.59928,2453.491,38.4884
2023-10-04T18:42:49,2420,42.8014,5.9826,13.2983,4.59931,2453.514,38.4887
2023-10-04T18:45:49,2420,42.8014,5.9826,13.2975,4.59924,2453.477,38.4889
2023-10-04T18:48:49,2420,42.8014,5.9826,13.2979,4.59932,2453.514,38.4892
2023-10-04T18:51:49,2420,42.8014,5.9826,13.2981,4.59929,2453.514,38.4887
2023-10-04T18:54:49,2420,42.8014,5.9826,13.2979,4.59932,2453.537,38.4892
2023-10-04T18:57:49,2420,42.8014,5.9826,13.2982,4.59930,2453.537,38.4887
2023-10-04T19:00:49,2420,42.8014,5.9826,13.2979,4.59927,2453.522,38.4887
2023-10-04T19:03:49,2420,42.8014,5.9826,13.2979,4.59928,2453.537,38.4887
2023-10-04T19:06:49,2420,42.8014,5.9826,13.2979,4.59922,2453.514,38.4882
2023-10-04T19:09:49,2420,42.8014,5.9826,13.2982,4.59922,2453.537,38.4880
2023-10-04T19:12:49,2420,42.8014,5.9826,13.2985,4.59935,2453.499,38.4889
2023-10-04T19:15:49,2420,42.8014,5.9826,13.2982,4.59926,2453.514,38.4883
2023-10-04T19:18:49,2420,42.8014,5.9826,13.2981,4.59927,2453.544,38.4885
2023-10-04T19:21:49,2420,42.8014,5.9826,13.2982,4.59922,2453.537,38.4880
2023-10-04T19:24:49,2420,42.8014,5.9826,13.2979,4.59925,2453.582,38.4884
2023-10-04T19:27:49,2420,42.8014,5.9826,13.2978,4.59928,2453.559,38.4890
2023-10-04T19:30:49,2420,42.8014,5.9826,13.2976,4.59926,2453.514,38.4889
2023-10-04T19:33:49,2420,42.8014,5.9826,13.2981,4.59922,2453.499,38.4880
2023-10-04T19:36:49,2420,42.8014,5.9826,13.2981,4.59928,2453.537,38.4886
2023-10-04T19:39:49,2420,42.8014,5.9826,13.2987,4.59932,2453.559,38.4884
2023-10-04T19:42:49,2420,42.8014,5.9826,13.2982,4.59930,2453.559,38.4887
2023-10-04T19:45:49,2420,42.8014,5.9826,13.2985,4.59921,2453.537,38.4876
2023-10-04T19:48:49,2420,42.8014,5.9826,13.2982,4.59928,2453.596,38.4885
2023-10-04T19:51:49,2420,42.8014,5.9826,13.2979,4.59935,2453.522,38.4895
2023-10-04T19:54:49,2420,42.8014,5.9826,13.2985,4.59928,2453.559,38.4882
2023-10-04T19:57:49,2420,42.8014,5.9826,13.2987,4.59929,2453.582,38.4881
2023-10-04T20:00:49,2420,42.8014,5.9826,13.2983,4.59929,2453.559,38.4885
2023-10-04T20:03:49,2420,42.8014,5.9826,13.2984,4.59931,2453.559,38.4886
2023-10-04T20:06:49,2420,42.8014,5.9826,13.2986,4.59933,2453.537,38.4886
2023-10-04T20:09:49,2420,42.8014,5.9826,13.2980,4.59928,2453.544,38.4887
2023-10-04T20:12:49,2420,42.8014,5.9826,13.2986,4.59927,2453.582,38.4880
2023-10-04T20:15:49,2420,42.8014,5.9826,13.2982,4.59920,2453.582,38.4877
2023-10-04T20:18:49,2420,42.8014,5.9826,13.2982,4.59920,2453.559,38.4878
2023-10-04T20:21:50,2420,42.8014,5.9826,13.2979,4.59931,2453.582,38.4890
2023-10-04T20:24:49,2420,42.8014,5.9826,13.2981,4.59926,2453.582,38.4884
2023-10-04T20:27:49,2420,42.8014,5.9826,13.2986,4.59927,2453.604,38.4880
2023-10-04T20:30:49,2420,42.8014,5.9826,13.2983,4.59930,2453.604,38.4886
2023-10-04T20:33:49,2420,42.8014,5.9826,13.2985,4.59926,2453.582,38.4880
2023-10-04T20:36:49,2420,42.8014,5.9826,13.2985,4.59926,2453.582,38.4880
2023-10-04T20:39:49,2420,42.8014,5.9826,13.2989,4.59936,2453.582,38.4885
2023-10-04T20:42:49,2420,42.8014,5.9826,13.2979,4.59932,2453.582,38.4892
2023-10-04T20:45:49,2420,42.8014,5.9826,13.2982,4.59928,2453.604,38.4885
2023-10-04T20:48:49,2420,42.8014,5.9826,13.2982,4.59932,2453.582,38.4889
2023-10-04T20:51:49,2420,42.8014,5.9826,13.2981,4.59927,2453.604,38.4885
2023-10-04T20:54:49,2420,42.8014,5.9826,13.2974,4.59928,2453.604,38.4893
2023-10-04T20:57:49,2420,42.8014,5.9826,13.2982,4.59931,2453.604,38.4888
2023-10-04T21:00:49,2420,42.8014,5.9826,13.2985,4.59926,2453.567,38.4880
2023-10-04T21:03:49,2420,42.8014,5.9826,13.2992,4.59928,2453.604,38.4875
2023-10-04T21:06:49,2420,42.8014,5.9826,13.2985,4.59935,2453.582,38.4889
2023-10-04T21:09:49,2420,42.8014,5.9826,13.2986,4.59931,2453.604,38.4883
2023-10-04T21:12:49,2420,42.8014,5.9826,13.2988,4.59937,2453.604,38.4887
2023-10-04T21:15:49,2420,42.8014,5.9826,13.2983,4.59936,2453.627,38.4891
2023-10-04T21:18:49,2420,42.8014,5.9826,13.2982,4.59931,2453.604,38.4888
2023-10-04T21:21:49,2420,42.8014,5.9826,13.2985,4.59936,2453.582,38.4890
2023-10-04T21:24:49,2420,42.8014,5.9826,13.2987,4.59931,2453.590,38.4883
2023-10-04T21:27:49,2420,42.8014,5.9826,13.2982,4.59941,2453.590,38.4898
2023-10-04T21:30:49,2420,42.8014,5.9826,13.2982,4.59930,2453.649,38.4887
2023-10-04T21:33:49,2420,42.8014,5.9826,13.2984,4.59941,2453.582,38.4895
2023-10-04T21:36:49,2420,42.8014,5.9826,13.2982,4.59933,2453.604,38.4890
2023-10-04T21:39:49,2420,42.8014,5.9826,13.2980,4.59936,2453.590,38.4894
2023-10-04T21:42:49,2420,42.8014,5.9826,13.2984,4.59927,2453.582,38.4882
2023-10-04T21:45:49,2420,42.8014,5.9826,13.2991,4.59929,2453.627,38.4877
2023-10-04T21:48:49,2420,42.8014,5.9826,13.2982,4.59934,2453.627,38.4891
2023-10-04T21:51:49,2420,42.8014,5.9826,13.2993,4.59934,2453.627,38.4879
2023-10-04T21:54:49,2420,42.8014,5.9826,13.2979,4.59925,2453.627,38.4884
2023-10-04T21:57:49,2420,42.8014,5.9826,13.2989,4.59946,2453.604,38.4894
2023-10-04T22:00:49,2420,42.8014,5.9826,13.2983,4.59945,2453.604,38.4900
2023-10-04T22:03:49,2420,42.8014,5.9826,13.2982,4.59940,2453.604,38.4896
2023-10-04T22:06:49,2420,42.8014,5.9826,13.2988,4.59934,2453.604,38.4885
2023-10-04T22:09:49,2420,42.8014,5.9826,13.2988,4.59931,2453.627,38.4882
2023-10-04T22:12:49,2420,42.8014,5.9826,13.2979,4.59940,2453.604,38.4899
2023-10-04T22:15:49,2420,42.8014,5.9826,13.2984,4.59939,2453.604,38.4893
2023-10-04T22:18:49,2420,42.8014,5.9826,13.2986,4.59942,2453.604,38.4894
2023-10-04T22:21:49,2420,42.8014,5.9826,13.2986,4.59926,2453.612,38.4878
2023-10-04T22:24:49,2420,42.8014,5.9826,13.2988,4.59922,2453.582,38.4873
2023-10-04T22:27:49,2420,42.8014,5.9826,13.2982,4.59936,2453.590,38.4893
2023-10-04T22:30:49,2420,42.8014,5.9826,13.2981,4.59941,2453.582,38.4898
2023-10-04T22:33:49,2420,42.8014,5.9826,13.2981,4.59931,2453.582,38.4889
2023-10-04T22:36:49,2420,42.8014,5.9826,13.2982,4.59927,2453.604,38.4884
2023-10-04T22:39:49,2420,42.8014,5.9826,13.2983,4.59926,2453.604,38.4882
2023-10-04T22:42:49,2420,42.8014,5.9826,13.2981,4.59937,2453.604,38.4894
2023-10-04T22:45:49,2420,42.8014,5.9826,13.2990,4.59950,2453.604,38.4897
2023-10-04T22:48:49,2420,42.8014,5.9826,13.2979,4.59940,2453.604,38.4899
2023-10-04T22:51:49,2420,42.8014,5.9826,13.2988,4.59928,2453.582,38.4878
2023-10-04T22:54:49,2420,42.8014,5.9826,13.2981,4.59932,2453.590,38.4890
2023-10-04T22:57:49,2420,42.8014,5.9826,13.2979,4.59939,2453.627,38.4898
2023-10-04T23:00:49,2420,42.8014,5.9826,13.2979,4.59934,2453.627,38.4894
2023-10-04T23:03:49,2420,42.8014,5.9826,13.2988,4.59936,2453.627,38.4887
2023-10-04T23:06:49,2420,42.8014,5.9826,13.2981,4.59922,2453.590,38.4880
2023-10-04T23:09:49,2420,42.8014,5.9826,13.2986,4.59926,2453.604,38.4879
2023-10-04T23:12:49,2420,42.8014,5.9826,13.2985,4.59931,2453.604,38.4885
2023-10-04T23:15:49,2420,42.8014,5.9826,13.2982,4.59930,2453.596,38.4887
2023-10-04T23:18:49,2420,42.8014,5.9826,13.2988,4.59931,2453.582,38.4881
2023-10-04T23:21:49,2420,42.8014,5.9826,13.2982,4.59927,2453.604,38.4884
2023-10-04T23:24:49,2420,42.8014,5.9826,13.2987,4.59929,2453.604,38.4881
2023-10-04T23:27:49,2420,42.8014,5.9826,13.2977,4.59922,2453.604,38.4885
2023-10-04T23:30:49,2420,42.8014,5.9826,13.2984,4.59924,2453.612,38.4879
2023-10-04T23:33:50,2420,42.8014,5.9826,13.2991,4.59928,2453.582,38.4876
2023-10-04T23:36:49,2420,42.8014,5.9826,13.2983,4.59923,2453.582,38.4879
2023-10-04T23:39:49,2420,42.8014,5.9826,13.2980,4.59920,2453.604,38.4879
2023-10-04T23:42:49,2420,42.8014,5.9826,13.2980,4.59933,2453.582,38.4891
2023-10-04T23:45:49,2420,42.8014,5.9826,13.2984,4.59926,2453.582,38.4881
2023-10-04T23:48:49,2420,42.8014,5.9826,13.2979,4.59927,2453.582,38.4886
2023-10-04T23:51:49,2420,42.8014,5.9826,13.2980,4.59927,2453.582,38.4886
2023-10-04T23:54:49,2420,42.8014,5.9826,13.2982,4.59922,2453.582,38.4879
2023-10-04T23:57:49,2420,42.8014,5.9826,13.2982,4.59928,2453.641,38.4885
